Marshalltown, IA

9:39 PM CDT on May 27, 2017 (GMT -0500)
Marshalltown Municipal

Weather History for KMIW - November, 2011

Change the Weather History Date:

Saturday, November 26, 2011

  Actual Average Record
Temperature  
Mean Temperature 45 °F 31 °F  
Max Temperature 52 °F 40 °F 64 °F (1998)
Min Temperature 37 °F 21 °F 1 °F (1996)
Degree Days  
Heating Degree Days 20 34  
Month to date heating degree days 621 719  
Since 1 July heating degree days 1190 1352  
Cooling Degree Days 0 0  
Month to date cooling degree days 0 0  
Year to date cooling degree days 896 728  
Moisture  
Dew Point 40 °F    
Average Humidity 86    
Maximum Humidity 96    
Minimum Humidity 76    
Precipitation  
Precipitation 0.14 in 0.04 in 0.79 in (2015)
Month to date precipitation 1.95 2.06  
Year to date precipitation 24.78  
Sea Level Pressure  
Sea Level Pressure 29.84 in    
Wind  
Wind Speed 20 mph (West)    
Max Wind Speed 32 mph    
Max Gust Speed 43 mph    
Visibility 8 miles    
Events Rain    
T = Trace of Precipitation, MM = Missing Value Source: NWS Daily Summary

Daily Weather History Graph

Daily Weather History Graph

Search for Another Location

Airport or City:

Trip Planner

Search our weather history database for the weather conditions in past years. The results will help you decide how hot, cold, wet, or windy it might be!

Date:

Astronomy

Nov. 26, 2011 Rise Set
Actual Time 7:14 AM CST 4:42 PM CST
Civil Twilight 6:43 AM CST 5:13 PM CST
Nautical Twilight 6:09 AM CST 5:48 PM CST
Astronomical Twilight 5:35 AM CST 6:21 PM CST
Moon 8:47 AM CST (11/26) 6:13 PM CST (11/26)
Length of Visible Light 10h 29m
Length of Day
9h 28m
Waxing Crescent, 3% of the Moon is Illuminated
Nov 26
Waxing Crescent
Dec 2
First Quarter
Dec 10
Full
Dec 17
Last Quarter
Dec 24
New

Hourly Weather History & Observations

Time (CST) Temp. Windchill Dew Point Humidity Pressure Visibility Wind Dir Wind Speed Gust Speed Precip Events Conditions
12:33 AM 51.8 °F - 48.2 °F 88% 29.72 in 6.0 mi South 12.7 mph - 0.03 in Rain Light Rain
12:53 AM 52.0 °F - 48.9 °F 89% 29.72 in 7.0 mi SSW 12.7 mph - 0.03 in Rain Light Rain
1:53 AM 52.0 °F - 48.9 °F 89% 29.71 in 5.0 mi SSW 11.5 mph - 0.03 in Rain Light Rain
2:53 AM 52.0 °F - 50.0 °F 93% 29.72 in 5.0 mi SSW 11.5 mph - 0.03 in Rain Light Rain
3:06 AM 51.8 °F - 50.0 °F 94% 29.71 in 5.0 mi SSW 12.7 mph - 0.01 in Rain Light Rain
3:45 AM 51.8 °F - 50.0 °F 94% 29.70 in 6.0 mi SSW 9.2 mph - 0.04 in Rain Light Rain
3:53 AM 52.0 °F - 50.0 °F 93% 29.71 in 6.0 mi SSW 10.4 mph - 0.04 in   Overcast
4:01 AM 51.8 °F - 50.0 °F 94% 29.70 in 6.0 mi SSW 9.2 mph - N/A   Overcast
4:53 AM 52.0 °F - 50.0 °F 93% 29.72 in 6.0 mi SW 10.4 mph - 0.00 in   Overcast
5:03 AM 51.8 °F - 50.0 °F 94% 29.72 in 6.0 mi SW 11.5 mph - 0.00 in Rain Light Rain
5:38 AM 51.8 °F - 50.0 °F 94% 29.71 in 5.0 mi SW 10.4 mph - 0.00 in   Overcast
5:53 AM 51.1 °F - 50.0 °F 96% 29.73 in 5.0 mi SW 12.7 mph - 0.00 in   Overcast
6:19 AM 51.8 °F - 48.2 °F 88% 29.75 in 7.0 mi West 18.4 mph - 0.00 in Rain Light Rain
6:30 AM 51.8 °F - 48.2 °F 88% 29.76 in 8.0 mi West 19.6 mph - 0.01 in Rain Light Rain
6:53 AM 46.0 °F 38.8 °F 42.1 °F 86% 29.79 in 10.0 mi West 18.4 mph - 0.01 in Rain Light Rain
7:28 AM 42.8 °F 35.1 °F 37.4 °F 81% 29.80 in 10.0 mi WNW 16.1 mph - 0.00 in   Overcast
7:53 AM 41.0 °F 32.2 °F 37.0 °F 86% 29.82 in 10.0 mi WNW 18.4 mph 24.2 mph 0.00 in   Overcast
8:29 AM 41.0 °F 33.1 °F 37.4 °F 87% 29.82 in 7.0 mi WNW 15.0 mph - N/A   Mostly Cloudy
9:08 AM 42.8 °F 36.2 °F 37.4 °F 81% 29.83 in 6.0 mi WNW 12.7 mph - N/A   Mostly Cloudy
9:34 AM 42.8 °F 36.2 °F 37.4 °F 81% 29.83 in 6.0 mi WNW 12.7 mph - N/A   Mostly Cloudy
9:53 AM 42.1 °F 34.2 °F 37.9 °F 85% 29.84 in 6.0 mi WNW 16.1 mph - N/A   Overcast
10:53 AM 42.1 °F 32.8 °F 37.9 °F 85% 29.89 in 9.0 mi WNW 21.9 mph 26.5 mph N/A   Overcast
11:37 AM 41.0 °F 31.9 °F 37.4 °F 87% 29.87 in 10.0 mi WNW 19.6 mph - N/A   Overcast
11:53 AM 41.0 °F 31.1 °F 37.0 °F 86% 29.88 in 10.0 mi NW 23.0 mph 29.9 mph N/A   Overcast
12:53 PM 39.9 °F 29.0 °F 35.1 °F 83% 29.88 in 10.0 mi NW 26.5 mph 32.2 mph N/A   Overcast
1:53 PM 39.0 °F 28.3 °F 34.0 °F 82% 29.90 in 10.0 mi NW 24.2 mph 34.5 mph N/A   Overcast
2:53 PM 39.0 °F 27.8 °F 33.1 °F 79% 29.91 in 10.0 mi NW 26.5 mph 31.1 mph N/A   Overcast
3:48 PM 39.2 °F 28.7 °F 33.8 °F 81% 29.94 in 10.0 mi NW 23.0 mph 29.9 mph N/A   Overcast
3:53 PM 39.0 °F 28.8 °F 33.1 °F 79% 29.95 in 10.0 mi NW 21.9 mph 29.9 mph N/A   Overcast
4:53 PM 39.0 °F 27.4 °F 33.1 °F 79% 29.96 in 10.0 mi NW 28.8 mph 40.3 mph N/A   Overcast
5:53 PM 37.9 °F 27.1 °F 33.1 °F 83% 29.99 in 10.0 mi NW 23.0 mph 32.2 mph N/A   Overcast
6:53 PM 37.0 °F 26.2 °F 32.0 °F 82% 30.01 in 10.0 mi NW 21.9 mph 31.1 mph N/A   Overcast
7:53 PM 37.0 °F 25.9 °F 30.9 °F 79% 30.02 in 10.0 mi NW 23.0 mph 35.7 mph N/A   Overcast
8:53 PM 37.0 °F 25.6 °F 30.0 °F 76% 30.03 in 10.0 mi NW 24.2 mph 38.0 mph N/A   Overcast
9:53 PM 37.0 °F 24.7 °F 30.0 °F 76% 30.04 in 10.0 mi NNW 28.8 mph 40.3 mph N/A   Overcast
10:53 PM 37.0 °F 24.9 °F 30.0 °F 76% 30.04 in 10.0 mi NNW 27.6 mph 36.8 mph N/A   Overcast
11:53 PM 37.0 °F 26.2 °F 30.0 °F 76% 30.06 in 10.0 mi NNW 21.9 mph 31.1 mph N/A   Overcast